Погода в Пампорово

Болгария     41°39′02″N   24°41′46″E
темп.,
°C
ветер,
м/с
пор.,
м/с
влажн.,
%
обл.,
%
осадки,
мм/ч
давл.,
гПа
погр.,
м
4 марта, чт
чт423:00−1зсз11670 0.0 103023
02:00−1з11670 0.0 102922
05:00−1зюз12570 0.0 102721
08:00+2зюз12400 0.0 102623
11:00+11з11260 0.0 1024649
14:00+12ссз13260 0.0 10211392
17:00+10св01530 0.0 1019113
20:00+3зюз12670 0.0 101922
5 марта, пт
пт523:00+2юз22610 0.0 101923
02:00+2зюз22490 0.0 101822
05:00+1зюз22540 0.0 101722
08:00+3юз22461 0.0 101733
11:00+11зюз252626 0.0 10171277
14:00+11зюз472620 0.0 10151431
17:00+8зсз254189 0.0 10151206
20:00+3зюз127294 0.0 101723
6 марта, сб
сб623:00+2з117690 0.0 101822
02:00+2з116795 0.0 101922
05:00+2вюв0164100 0.1 101822
08:00+3сз0070100 0.1 102052
11:00+6с2256100 0.0 10211085
14:00+5с3466100 0.3 1022927
17:00+2ссз349599 1.4 1023307
20:000с239899 5.6 1027217
7 марта, вс
вс723:00−2ссв2398100 5.4 1029198
02:00−3св1298100 8.3 1030172
05:00−4св1297100 1.4 1030162
08:00−3св1194100 2.6 1030179
11:00−1св1192100 0.3 1029309
14:000всв1295100 0.9 1027274
17:00−1всв1197100 0.6 1024155
20:00−3ююз119897 0.8 102443
8 марта, пн
пн823:00−5юз229325 0.0 102424
02:00−6зюз228912 0.0 102223
05:00−5зюз22760 0.0 102022
08:00−1зюз12670 0.0 102032
11:00+6юз016375 0.0 1019879
14:00+7ссв126382 0.0 10181401
17:00+2ссв2397100 0.6 1016265
20:00−1ю1197100 1.1 101748